Location: Melbourne
(37.8170°S, 144.9670°E)
Time: 07:14:04
(UTC+10:00)

Vanguard 1 Rocket - Visible Passes

Search period start: 23 May 2017 00:00
Search period end: 02 June 2017 00:00
Orbit: 651 x 4226 km, 34.3° (Epoch: 21 May)

Date Brightness Start Highest point End Pass type
(mag) Time Alt. Az. Time Alt. Az. Time Alt. Az.
23 May 11.7 17:04:56 10° W 17:19:16 36° NNW 17:40:21 10° NNE visible
23 May 12.4 19:44:42 10° WNW 19:49:19 11° NW 19:54:09 10° NW visible
24 May 12.2 18:23:27 10° WNW 18:35:40 20° NW 18:50:46 10° N visible
25 May 12.0 17:09:00 10° W 17:22:02 29° NW 17:40:42 10° NNE visible
26 May 12.4 18:30:21 10° WNW 18:38:29 13° NW 18:47:52 10° NNW visible
27 May 12.2 17:13:39 10° WNW 17:24:55 22° NW 17:40:16 10° N visible
29 May 12.4 17:19:32 10° WNW 17:27:55 15° NW 17:38:24 10° N visible
01 Jun 9.5 06:31:13 10° N 06:33:44 15° NNE 06:36:17 10° ENE visible
